ORBCOMM FM26 [-]

Last updated on Fri Dec 29 2023 00:02:54 GMT+0000 (Coordinated Universal Time)

1 25480U 98053F 23362.14215581 .00001535 00000+0 58817-3 0 9992 2 25480 45.0082 280.8685 0005018 87.0394 273.1027 14.34571463320568
UTC large
Height (km)
Speed (km/s)
/
Latitude / Longitude
Inclination (degrees)
Orbital Period (minutes)
Azimuth
Elevation
Range (km)
Doppler Factor

Next 0 passes for location: London (51.5072 / 0.1276)

Sorry there are no passes over London.